SCP
2 2 1 1 1 0 0 0 1 1 1 0 0 0 0 0 0 1 1 2 2 2 1 1 1 1 2 1 2 2 2 1 1 1 1 1 1 1 0 0 0 1 1 1 1 1 0 1 1
2 1 1 1 1 0 0 1 1 1 1 0 0 0 0 0 1 1 1 2 2 2 1 1 1 1 1 1 1 2 2 1 1 1 1 1 1 1 0 0 0 1 1 1 1 0 0 1 1
2 1 1 1 1 0 0 1 1 1 1 0 0 0 0 0 1 1 2 2 2 2 1 1 1 1 1 1 1 1 1 1 1 1 1 1 1 1 0 0 0 1 1 1 1 0 0 0 1
1 1 1 1 1 0 1 1 1 1 0 0 0 0 0 1 1 2 2 1 1 2 1 1 1 1 1 1 1 1 1 1 1 1 1 1 1 1 1 1 1 1 1 1 0 0 0 0 0
1 1 1 1 1 1 1 1 0 0 0 0 0 1 1 1 1 1 1 1 1 1 1 1 1 1 1 1 1 1 1 1 1 1 1 1 1 1 1 1 1 1 1 1 0 0 0 0 0
1 1 1 1 1 1 1 1 0 0 0 0 0 1 1 1 1 1 1 1 1 1 1 1 1 1 1 1 1 1 1 1 1 1 1 2 2 2 2 1 1 1 1 1 1 1 0 0 0
1 1 1 1 1 1 1 1 1 1 1 0 0 1 1 1 1 1 1 1 1 1 1 1 1 1 1 1 1 1 1 1 0 1 1 2 2 2 2 1 1 1 1 1 1 1 1 1 1
0 0 0 0 1 1 1 1 1 1 1 1 1 1 1 1 1 1 1 1 1 1 1 1 1 0 0 0 0 1 1 0 0 0 1 1 1 1 1 1 1 1 1 1 1 1 1 1 1
0 0 1 1 1 1 1 1 1 1 1 1 1 1 1 1 1 1 1 1 1 1 1 1 1 1 0 0 0 0 0 0 0 0 0 1 1 1 1 1 1 1 1 1 1 1 1 1 1
0 1 1 1 1 1 1 1 1 1 1 1 1 1 1 1 1 1 1 1 1 1 1 1 1 1 0 0 0 0 0 0 0 0 0 0 0 0 1 1 1 1 1 1 1 1 1 1 1
0 1 1 1 1 1 1 1 1 1 1 1 1 1 2 1 1 1 1 1 1 1 1 1 1 1 1 0 0 0 0 0 0 0 0 0 0 0 0 0 0 0 1 1 1 1 1 1 1
0 0 1 1 1 1 1 1 1 1 1 2 2 2 1 1 1 1 1 1 1 1 1 1 1 1 1 1 1 0 0 0 0 0 0 0 0 0 0 0 0 1 1 1 1 1 1 1 1
0 0 1 1 1 1 1 1 1 1 2 2 2 2 1 1 1 1 1 1 1 1 1 1 1 1 1 1 1 1 1 0 0 0 0 0 0 0 0 0 0 0 0 1 1 1 0 0 0
0 1 1 1 1 1 1 1 1 1 2 2 2 1 1 1 1 1 1 1 2 2 1 1 1 1 1 1 1 1 1 1 0 0 0 0 0 0 0 0 0 0 0 0 0 0 0 0 0
0 1 1 1 1 0 0 1 1 2 2 2 2 2 1 2 2 1 1 2 2 2 1 1 1 1 1 1 1 1 1 1 0 0 0 0 0 0 0 0 0 0 0 0 0 0 0 0 0
1 1 1 1 1 0 0 1 1 2 2 2 2 2 2 2 2 1 1 2 2 2 2 1 1 1 1 1 1 1 1 1 1 0 0 0 0 0 0 0 0 0 0 0 0 0 0 0 0
0 0 0 1 1 1 0 0 1 1 1 1 1 2 2 1 2 2 2 2 2 2 2 2 1 1 1 1 1 1 1 1 1 1 0 0 0 0 0 0 0 0 0 0 0 0 0 0 0
0 0 0 0 0 1 1 0 1 1 1 1 1 1 1 2 2 2 2 2 1 1 2 2 2 1 1 1 1 1 1 1 1 1 1 0 0 0 0 0 0 0 0 0 0 0 0 0 0
0 0 0 0 0 0 0 0 1 1 0 0 1 1 1 2 2 3 2 2 1 1 2 2 2 2 2 1 2 2 2 1 1 1 1 0 0 0 0 0 0 0 0 0 0 0 0 0 0
0 0 0 0 0 0 0 0 1 0 0 0 0 1 1 2 2 3 2 2 1 1 1 1 1 1 2 2 2 2 2 2 2 1 1 1 0 0 0 0 0 0 0 1 1 1 0 0 0
0 0 0 0 0 0 0 0 1 0 0 0 0 0 1 2 2 2 2 2 1 1 1 1 1 1 2 2 3 3 2 2 2 2 1 1 1 1 1 1 0 1 1 1 1 1 1 0 0
0 0 0 0 0 0 0 0 1 1 0 0 0 0 1 1 2 2 2 2 2 1 1 1 1 1 2 3 3 3 2 2 2 2 2 2 1 1 1 1 1 1 1 1 1 1 1 1 1
0 0 0 0 0 0 0 0 1 1 0 1 1 1 1 2 2 3 3 3 2 2 2 2 2 2 2 2 3 3 3 2 2 2 2 2 2 2 1 1 1 1 1 1 1 1 1 1 1
0 0 0 0 0 0 0 0 1 1 1 1 1 2 2 2 2 3 3 3 2 2 2 2 2 2 2 2 2 3 3 2 2 2 3 2 2 2 2 1 1 1 1 1 1 1 1 1 1
0 0 0 0 0 0 0 0 0 1 1 1 1 2 2 2 2 3 3 3 2 2 2 1 1 1 2 2 2 3 3 3 2 2 3 3 3 3 2 2 1 1 1 1 1 1 1 1 0
1 1 1 0 0 0 0 0 0 1 1 1 1 2 2 2 2 2 2 2 2 2 2 2 1 2 2 2 2 3 3 3 2 2 3 3 3 3 3 2 2 1 1 1 1 1 1 1 1
1 1 1 1 0 0 0 0 0 0 1 1 1 1 1 1 1 2 2 2 2 2 2 2 2 2 3 3 3 3 3 3 3 2 2 3 3 3 3 2 2 2 1 1 1 1 1 1 1
0 1 1 1 0 0 0 0 0 0 0 1 1 1 1 1 1 1 1 1 2 2 2 2 3 3 3 3 3 3 3 3 3 2 2 2 2 3 3 3 2 2 2 2 2 2 1 1 1
0 0 1 1 1 0 0 0 0 0 0 1 1 1 1 1 1 1 1 2 2 2 2 2 2 2 2 3 3 2 2 3 3 2 2 2 2 3 3 3 3 2 2 2 2 2 2 1 1
0 0 0 1 1 0 0 0 0 0 1 1 1 1 1 1 0 1 2 2 2 2 2 2 1 1 2 2 3 3 2 2 2 2 2 2 2 3 3 3 3 3 2 2 2 2 2 1 1
Wind_Speed
9 11 7 2 3 2 2 5 7 7 7 8 8 8 12 13 9 7 2 4 8 9 9 9 9 9 10 10 10 11 11 10 10 10 10 10 9 10 10 9 9 9 10 10 10 10 11 11 11
10 6 4 3 3 1 3 6 8 9 7 5 6 9 12 12 10 8 3 5 8 9 8 9 9 9 10 10 10 10 10 10 10 10 10 9 9 9 9 9 9 10 10 10 10 10 11 11 10
11 7 4 3 2 2 5 7 7 8 6 5 6 9 9 7 8 6 5 6 8 9 9 9 9 9 9 10 10 10 10 10 10 10 9 9 8 9 10 10 10 10 10 10 11 10 11 10 10
5 3 4 2 2 5 6 6 6 7 5 5 6 8 9 8 6 7 7 7 9 9 10 9 10 10 10 10 10 10 10 10 10 10 10 10 10 10 11 11 11 11 11 11 11 11 11 10 10
3 3 3 1 3 6 6 6 5 5 5 5 7 10 9 9 10 9 6 7 8 8 9 9 10 10 10 10 10 10 11 10 10 10 11 12 12 12 12 12 12 12 11 12 11 11 12 11 11
3 3 2 1 4 5 5 5 5 6 6 7 6 8 8 8 8 6 5 6 8 8 9 9 10 10 10 10 10 10 10 10 11 11 11 12 13 13 12 12 12 12 12 12 11 11 11 10 10
3 3 2 1 4 5 4 4 5 5 6 6 4 6 8 8 6 5 5 6 7 7 8 8 8 9 9 10 10 10 10 10 10 10 10 11 12 12 12 12 12 12 11 11 10 10 10 9 9
3 3 1 1 3 4 4 4 5 5 5 5 4 5 7 8 6 6 5 5 6 6 6 7 7 7 7 7 9 9 9 8 8 8 8 9 10 11 11 11 11 11 10 9 9 8 8 7 8
4 2 2 2 3 3 4 4 4 3 4 5 7 9 11 11 8 6 5 5 5 5 5 5 6 6 6 6 7 7 7 6 6 5 5 4 4 5 6 9 9 9 8 7 6 5 5 5 5
1 1 3 4 4 3 3 3 2 4 4 5 8 11 12 10 7 6 6 5 5 4 4 4 4 4 5 5 5 3 4 4 3 3 3 2 3 4 6 7 7 7 6 5 3 2 1 1 2
1 1 3 4 4 3 3 3 2 3 3 4 6 9 9 8 6 5 5 6 5 5 4 4 4 4 4 3 3 1 1 2 1 3 4 3 3 3 4 2 2 3 3 1 2 1 1 2 2
2 1 2 2 3 3 2 2 4 5 4 5 7 9 9 7 6 5 5 5 5 6 4 4 3 3 3 4 2 2 1 1 2 2 4 3 2 3 3 2 1 1 1 2 2 2 3 4 4
1 1 2 2 2 2 3 4 4 3 4 5 7 8 6 5 5 5 5 5 6 6 5 4 3 3 3 3 2 3 2 2 2 2 2 3 2 3 2 2 2 2 2 2 2 3 4 5 5
2 2 1 1 2 1 2 2 2 3 4 5 6 6 5 5 4 4 4 5 5 6 5 4 3 3 4 3 3 3 2 2 2 1 2 3 2 3 3 3 2 2 2 2 2 3 3 4 4
2 3 3 3 3 2 1 1 2 4 5 5 5 4 4 4 3 3 4 4 4 5 5 5 3 3 4 4 3 3 2 2 2 1 2 3 3 4 3 2 2 1 2 3 3 3 3 3 4
5 4 3 3 3 3 3 1 2 5 5 4 4 4 4 4 4 3 3 3 4 4 5 5 3 4 4 4 3 2 2 2 2 1 2 2 3 4 3 2 2 2 3 3 3 3 3 3 3
4 4 3 3 3 2 2 1 2 4 5 4 4 4 4 4 4 4 4 3 3 4 5 5 4 4 4 4 3 2 3 2 2 2 1 2 3 4 3 2 2 3 3 2 2 3 3 3 3
3 4 3 1 2 2 3 2 4 4 3 4 4 3 4 5 5 5 5 4 3 3 5 5 5 4 4 3 3 2 2 1 2 2 1 2 2 3 3 2 3 3 3 2 3 3 2 2 1
5 5 5 1 1 2 3 2 3 3 3 3 3 3 3 4 6 6 6 5 4 3 3 4 5 4 3 2 2 2 1 1 1 1 2 2 2 3 2 2 2 2 3 2 2 2 2 1 1
5 5 4 3 2 3 3 4 3 4 3 3 3 3 3 3 5 5 5 5 4 4 3 4 4 4 4 3 2 2 2 1 2 1 1 1 2 2 2 2 2 3 2 2 2 2 1 1 1
6 4 4 4 5 6 5 4 4 5 5 3 3 3 3 3 6 7 5 5 5 4 3 4 4 4 4 4 2 2 2 2 1 1 1 1 1 2 2 2 2 2 2 2 1 1 1 1 1
6 4 5 5 6 5 5 2 2 5 5 4 3 3 3 3 4 5 5 5 5 4 4 4 3 4 4 4 3 2 2 2 2 2 2 2 1 1 2 2 2 2 2 2 1 2 1 1 0
6 5 7 8 8 8 7 4 2 5 5 4 3 3 4 4 4 4 4 4 4 4 3 3 3 3 3 3 4 3 2 2 2 2 2 2 1 1 2 2 2 2 2 2 1 1 1 1 1
6 8 9 9 6 7 6 4 0 2 4 5 5 4 4 5 4 4 4 4 4 3 3 2 2 2 3 3 4 4 3 3 3 2 2 2 1 1 2 2 2 2 2 2 2 1 1 1 1
6 5 4 3 4 3 1 1 2 4 4 5 6 5 4 5 4 4 5 4 3 3 2 2 3 2 2 2 3 4 4 3 3 3 2 2 1 1 2 1 1 2 2 2 2 1 2 2 1
6 5 4 4 4 2 1 1 4 6 6 6 6 6 5 5 4 4 4 4 3 3 2 2 3 3 2 2 2 3 4 2 2 2 2 2 2 2 2 2 1 1 1 1 2 2 2 2 1
6 5 6 7 9 6 2 4 5 6 6 6 7 6 5 5 4 4 4 4 3 3 2 1 1 2 2 2 2 1 2 3 2 2 2 2 2 2 3 2 2 1 1 1 1 1 2 1 1
7 6 4 4 4 5 3 2 3 5 5 5 6 5 5 5 4 4 3 3 3 3 2 2 1 1 1 2 2 2 2 2 2 2 1 1 2 2 3 2 2 2 2 1 1 1 1 1 1
5 6 5 4 5 4 3 1 4 5 5 5 6 5 5 4 4 4 3 3 2 3 2 2 1 1 1 1 1 2 2 1 1 1 2 2 1 2 2 2 2 2 2 2 2 2 2 2 2
5 6 6 4 5 4 3 0 3 4 5 5 6 5 5 4 4 4 4 3 2 2 2 2 1 1 1 0 1 0 1 2 2 1 2 2 2 2 2 3 2 2 1 2 2 2 2 2 2
Wind_Direction
263 247 238 250 257 237 53 68 73 63 60 50 46 55 63 53 46 83 114 84 95 95 100 89 73 67 67 72 76 77 77 74 69 64 62 64 66 69 68 67 67 65 64 61 61 61 61 62 62
273 269 261 240 253 240 79 76 71 68 71 67 57 57 68 66 70 95 111 88 92 94 92 87 80 74 72 71 76 77 77 75 71 66 62 62 66 71 73 69 69 67 64 62 63 62 64 64 63
262 262 262 250 305 36 74 75 84 83 72 66 67 58 55 61 76 100 109 104 95 93 92 91 86 82 77 75 78 79 76 74 72 68 64 62 66 76 76 71 69 67 66 67 66 64 66 65 63
255 249 246 254 26 56 73 90 95 95 77 61 73 80 74 58 81 106 113 107 99 98 97 97 90 88 84 79 80 81 80 76 73 70 65 62 71 81 79 72 68 66 67 70 69 66 66 64 63
239 253 243 205 71 71 73 74 85 90 86 67 71 89 90 80 92 103 105 103 102 102 103 103 97 95 90 86 84 84 83 79 76 72 69 68 75 81 80 74 69 68 70 70 68 68 65 61 58
257 256 257 138 96 79 78 80 85 84 90 86 87 98 97 100 98 104 107 104 107 110 111 112 109 102 95 90 88 86 84 82 80 77 75 75 77 80 80 77 74 72 71 70 68 68 65 62 58
279 285 283 81 102 90 79 78 75 85 73 65 74 95 114 114 111 118 114 110 107 108 114 121 125 116 105 98 95 92 90 87 86 84 83 84 84 85 84 80 78 75 73 72 70 68 66 63 58
276 285 316 56 95 88 81 80 76 72 77 65 46 94 125 128 132 126 121 112 108 112 121 128 130 129 124 117 111 107 103 101 99 98 97 95 94 91 89 84 80 79 76 76 75 73 69 63 56
269 282 350 35 77 99 112 103 89 87 92 86 65 77 114 129 136 134 130 112 107 111 117 122 127 131 130 129 120 125 120 116 121 125 128 125 112 103 92 90 90 88 86 83 81 84 83 75 59
198 28 36 37 67 88 81 86 125 120 100 95 94 99 116 131 140 141 135 128 123 117 117 111 116 120 122 122 134 148 133 141 159 134 138 129 97 94 98 103 102 103 98 97 92 82 75 78 66
123 80 51 43 59 70 75 59 53 89 89 92 114 123 128 137 142 143 138 137 137 130 115 114 114 111 116 111 119 106 112 140 105 100 98 83 93 109 107 117 122 117 113 82 69 46 45 63 63
89 78 73 53 63 65 76 83 69 63 72 86 106 124 136 147 146 145 141 138 139 123 111 112 117 120 116 114 114 108 97 88 72 68 94 82 79 90 101 97 78 85 74 54 48 39 45 45 46
119 89 93 75 83 77 80 77 85 84 88 99 113 124 134 147 148 154 148 140 136 134 139 134 137 125 110 101 103 96 74 70 73 44 89 92 79 88 94 89 68 55 64 62 46 43 48 46 38
81 80 96 144 134 143 119 126 132 118 122 119 122 132 142 136 144 147 145 146 146 143 142 141 139 122 115 108 93 86 87 82 76 41 62 92 95 92 86 89 70 54 53 61 65 61 56 58 49
200 202 205 211 208 176 175 155 144 150 146 136 134 139 131 127 135 145 152 153 148 147 141 132 130 113 109 104 95 97 99 95 75 51 46 81 84 84 80 81 71 60 53 56 54 54 58 70 63
231 233 229 212 203 206 214 221 152 148 148 141 145 150 143 149 167 159 151 149 149 142 136 136 138 121 112 107 105 104 100 94 91 64 28 59 76 82 77 78 70 59 53 53 55 52 55 57 58
246 244 235 207 192 216 222 195 153 157 156 154 153 158 158 162 183 160 150 155 153 142 139 143 133 122 106 105 109 93 106 107 102 88 52 46 69 83 85 76 78 68 55 47 50 52 59 68 64
288 286 278 215 152 218 215 189 168 181 171 159 155 167 171 174 186 167 157 158 160 145 145 143 133 131 124 121 115 91 83 97 97 96 92 65 69 79 83 85 74 75 69 52 52 56 49 64 73
304 299 307 328 117 279 271 235 177 171 175 165 167 185 182 181 175 162 159 156 154 144 135 130 134 132 126 123 124 123 114 94 92 88 85 86 86 88 83 77 74 75 85 82 75 64 52 38 66
281 289 310 321 324 288 266 264 199 181 187 188 182 182 178 163 153 149 150 152 158 152 142 136 141 141 132 128 138 146 137 130 116 101 85 88 85 92 116 112 103 94 94 78 74 73 49 351 31
275 293 302 307 305 273 260 255 215 176 169 186 180 171 167 164 152 147 150 155 155 158 154 151 145 141 140 139 137 130 119 120 107 135 122 125 142 145 124 112 116 121 112 108 109 111 86 5 345
284 304 289 282 276 266 251 268 214 175 159 171 164 156 137 124 122 133 144 148 154 152 142 143 143 138 142 145 149 153 151 147 166 151 149 154 146 133 127 123 121 123 125 138 184 147 135 122 332
292 294 278 269 270 275 259 254 217 160 160 163 150 127 117 115 104 111 128 134 136 133 134 139 140 137 142 148 144 153 143 153 145 128 140 158 157 160 142 132 129 129 136 153 184 151 169 156 174
287 281 273 259 257 261 257 244 199 136 147 149 133 119 117 110 97 99 96 91 98 108 117 127 136 140 150 157 159 157 153 163 154 160 168 179 163 163 152 156 162 158 162 171 175 173 167 186 190
271 282 289 255 223 237 226 198 109 91 92 111 126 123 109 105 103 100 103 96 92 107 129 143 141 147 162 172 166 162 167 172 169 171 176 179 163 161 183 174 180 174 174 175 169 174 182 196 188
266 264 276 292 293 303 215 154 99 102 96 103 110 116 112 105 98 100 107 111 111 108 122 154 153 165 177 183 183 173 162 164 163 175 174 171 174 179 176 179 182 190 181 174 164 173 188 191 186
270 270 280 284 290 289 220 138 128 122 116 116 114 114 115 110 102 104 108 115 118 112 98 79 121 146 166 179 183 166 164 171 187 205 193 175 183 175 164 173 181 197 194 191 168 172 200 181 175
262 283 283 276 290 285 254 186 160 141 129 124 122 121 117 116 111 105 107 107 120 124 124 106 78 97 178 169 172 177 197 186 186 190 197 179 179 167 150 174 192 196 187 190 185 163 230 169 174
256 264 273 277 275 291 302 38 79 120 128 127 128 128 125 119 113 106 92 88 107 120 124 127 121 77 45 25 195 190 183 178 175 192 197 195 186 175 164 174 188 206 203 186 181 195 218 197 200
263 272 276 278 285 283 286 312 88 104 123 129 130 129 124 119 116 115 110 101 83 87 117 131 133 115 106 55 2 300 189 178 184 203 202 195 190 184 169 166 180 202 215 213 201 205 212 204 213